EJA337 KPIE-KEYW

Flight info

Callsign EJA337
Flight time 0h 49m
Altitude 39000
Route SABEE KRAKN1
Aircraft E55P/L-VGDW/C

Departure

Time 2026-05-06 03:32
Airport St. Petersburg Clearwater International Airport (KPIE)

Arrival

Time 2026-05-06 04:22
Airport Key West International Airport (KEYW)
Time Latitude Longitude Altitude Speed Heading
2026-05-06 03:08 27.91258 -82.69359 10 ft 0 kts 94°
2026-05-06 03:19 27.91258 -82.69357 10 ft 0 kts 94°
2026-05-06 03:21 27.91258 -82.69354 10 ft 1 kts 94°
2026-05-06 03:21 27.91257 -82.69337 10 ft 2 kts 93°
2026-05-06 03:21 27.91257 -82.69317 10 ft 2 kts 86°
2026-05-06 03:21 27.91264 -82.69298 10 ft 2 kts 51°
2026-05-06 03:22 27.91279 -82.69279 9 ft 3 kts 43°
2026-05-06 03:22 27.91302 -82.69257 9 ft 4 kts 40°
2026-05-06 03:22 27.91326 -82.69233 9 ft 5 kts 43°
2026-05-06 03:22 27.91365 -82.69199 9 ft 8 kts 38°
2026-05-06 03:23 27.91411 -82.69151 9 ft 10 kts 45°
2026-05-06 03:23 27.91422 -82.69080 9 ft 9 kts 122°
2026-05-06 03:23 27.91358 -82.69057 9 ft 9 kts 171°
2026-05-06 03:23 27.91287 -82.69044 9 ft 13 kts 170°
2026-05-06 03:24 27.91173 -82.69026 9 ft 17 kts 170°
2026-05-06 03:24 27.91038 -82.68998 10 ft 21 kts 174°
2026-05-06 03:24 27.90891 -82.68978 10 ft 20 kts 172°
2026-05-06 03:24 27.90751 -82.68954 10 ft 20 kts 171°
2026-05-06 03:25 27.90610 -82.68930 11 ft 19 kts 169°
2026-05-06 03:25 27.90476 -82.68906 11 ft 19 kts 171°
2026-05-06 03:25 27.90341 -82.68884 11 ft 19 kts 171°
2026-05-06 03:25 27.90210 -82.68862 11 ft 18 kts 176°
2026-05-06 03:26 27.90079 -82.68866 12 ft 18 kts 180°
2026-05-06 03:26 27.89951 -82.68866 12 ft 18 kts 179°
2026-05-06 03:26 27.89824 -82.68848 12 ft 18 kts 171°
2026-05-06 03:26 27.89706 -82.68819 12 ft 15 kts 148°
2026-05-06 03:27 27.89690 -82.68753 11 ft 8 kts 81°
2026-05-06 03:27 27.89695 -82.68722 11 ft 0 kts 81°
2026-05-06 03:31 27.89696 -82.68713 11 ft 3 kts 81°
2026-05-06 03:31 27.89702 -82.68669 11 ft 7 kts 81°
2026-05-06 03:31 27.89736 -82.68622 11 ft 8 kts 356°
2026-05-06 03:32 27.89864 -82.68644 11 ft 51 kts 349°
2026-05-06 03:32 27.90575 -82.68766 13 ft 148 kts 350°
2026-05-06 03:32 27.91759 -82.68911 411 ft 195 kts 353°
2026-05-06 03:32 27.93239 -82.69049 898 ft 226 kts 353°
2026-05-06 03:33 27.94866 -82.69222 1556 ft 246 kts 353°
2026-05-06 03:33 27.96680 -82.69420 1992 ft 273 kts 353°
2026-05-06 03:33 27.98551 -82.69727 2981 ft 272 kts 340°
2026-05-06 03:33 28.00002 -82.70959 4050 ft 267 kts 304°
2026-05-06 03:34 28.00543 -82.72932 4926 ft 270 kts 270°
2026-05-06 03:34 27.99971 -82.74966 5658 ft 279 kts 235°
2026-05-06 03:34 27.98421 -82.76326 6402 ft 286 kts 200°
2026-05-06 03:34 27.96453 -82.76480 7183 ft 288 kts 166°
2026-05-06 03:35 27.94691 -82.75413 7962 ft 289 kts 141°
2026-05-06 03:35 27.93001 -82.74163 8687 ft 293 kts 148°
2026-05-06 03:35 27.91239 -82.72968 9388 ft 298 kts 149°
2026-05-06 03:35 27.89449 -82.71787 10101 ft 301 kts 148°
2026-05-06 03:36 27.87629 -82.70587 10806 ft 304 kts 149°
2026-05-06 03:36 27.85752 -82.69350 11512 ft 307 kts 149°
2026-05-06 03:36 27.83883 -82.68121 12199 ft 310 kts 149°
2026-05-06 03:36 27.82015 -82.66894 12875 ft 313 kts 149°
2026-05-06 03:37 27.80104 -82.65639 13554 ft 316 kts 149°
2026-05-06 03:37 27.78202 -82.64391 14223 ft 318 kts 149°
2026-05-06 03:37 27.76248 -82.63107 14897 ft 321 kts 149°
2026-05-06 03:37 27.74291 -82.61823 15554 ft 324 kts 150°
2026-05-06 03:38 27.72340 -82.60545 16185 ft 326 kts 150°
2026-05-06 03:38 27.70390 -82.59267 16800 ft 328 kts 149°
2026-05-06 03:38 27.68396 -82.57961 17410 ft 330 kts 149°
2026-05-06 03:38 27.66386 -82.56644 18005 ft 333 kts 149°
2026-05-06 03:39 27.64364 -82.55320 18575 ft 335 kts 149°
2026-05-06 03:39 27.62332 -82.53989 19118 ft 338 kts 149°
2026-05-06 03:39 27.60286 -82.52652 19648 ft 340 kts 149°
2026-05-06 03:39 27.58225 -82.51305 20167 ft 343 kts 149°
2026-05-06 03:40 27.56134 -82.49937 20663 ft 345 kts 149°
2026-05-06 03:40 27.54038 -82.48567 21134 ft 348 kts 149°
2026-05-06 03:40 27.51932 -82.47192 21591 ft 351 kts 149°
2026-05-06 03:40 27.49821 -82.45815 22039 ft 353 kts 149°
2026-05-06 03:41 27.47674 -82.44415 22474 ft 356 kts 150°
2026-05-06 03:41 27.45507 -82.43002 22897 ft 358 kts 150°
2026-05-06 03:41 27.43353 -82.41599 23300 ft 360 kts 150°
2026-05-06 03:41 27.41190 -82.40191 23699 ft 363 kts 150°
2026-05-06 03:42 27.38992 -82.38760 24115 ft 365 kts 150°
2026-05-06 03:42 27.36772 -82.37315 24530 ft 367 kts 150°
2026-05-06 03:42 27.34562 -82.35878 24934 ft 369 kts 150°
2026-05-06 03:42 27.32352 -82.34441 25362 ft 369 kts 150°
2026-05-06 03:43 27.30116 -82.32987 25844 ft 368 kts 150°
2026-05-06 03:43 27.27928 -82.31566 26325 ft 366 kts 150°
2026-05-06 03:43 27.25727 -82.30137 26789 ft 364 kts 150°
2026-05-06 03:43 27.23510 -82.28697 27239 ft 364 kts 150°
2026-05-06 03:44 27.21348 -82.27295 27694 ft 363 kts 150°
2026-05-06 03:44 27.19167 -82.25880 28189 ft 361 kts 150°
2026-05-06 03:44 27.16989 -82.24468 28695 ft 359 kts 150°
2026-05-06 03:44 27.14832 -82.23071 29197 ft 358 kts 150°
2026-05-06 03:45 27.12671 -82.21671 29687 ft 356 kts 150°
2026-05-06 03:45 27.10522 -82.20279 30167 ft 355 kts 151°
2026-05-06 03:45 27.08307 -82.19068 30611 ft 353 kts 165°
2026-05-06 03:45 27.05896 -82.18592 31087 ft 351 kts 171°
2026-05-06 03:46 27.03485 -82.18121 31565 ft 349 kts 171°
2026-05-06 03:46 27.01092 -82.17656 32035 ft 347 kts 171°
2026-05-06 03:46 26.98715 -82.17194 32498 ft 345 kts 171°
2026-05-06 03:46 26.96352 -82.16736 32956 ft 344 kts 171°
2026-05-06 03:47 26.93993 -82.16280 33414 ft 342 kts 171°
2026-05-06 03:47 26.91672 -82.15830 33857 ft 341 kts 172°
2026-05-06 03:47 26.89318 -82.15374 34305 ft 339 kts 172°
2026-05-06 03:47 26.87002 -82.14926 34748 ft 338 kts 172°
2026-05-06 03:48 26.84707 -82.14483 35158 ft 337 kts 172°
2026-05-06 03:48 26.82379 -82.14034 35543 ft 337 kts 172°
2026-05-06 03:48 26.80086 -82.13592 35902 ft 337 kts 172°
2026-05-06 03:48 26.77754 -82.13142 36263 ft 338 kts 172°
2026-05-06 03:49 26.75437 -82.12685 36604 ft 338 kts 170°
2026-05-06 03:49 26.73153 -82.12144 36941 ft 338 kts 169°
2026-05-06 03:49 26.70817 -82.11597 37281 ft 338 kts 169°
2026-05-06 03:49 26.68535 -82.11062 37608 ft 339 kts 169°
2026-05-06 03:50 26.66215 -82.10519 37930 ft 339 kts 169°
2026-05-06 03:50 26.63930 -82.09984 38249 ft 338 kts 169°
2026-05-06 03:50 26.61617 -82.09443 38570 ft 338 kts 169°
2026-05-06 03:50 26.59308 -82.08903 38904 ft 338 kts 169°
2026-05-06 03:51 26.57007 -82.08366 39122 ft 342 kts 169°
2026-05-06 03:51 26.54633 -82.07812 39156 ft 352 kts 169°
2026-05-06 03:51 26.52238 -82.07109 39155 ft 364 kts 160°
2026-05-06 03:51 26.49852 -82.05988 39162 ft 375 kts 159°
2026-05-06 03:52 26.44911 -82.03734 39101 ft 392 kts 159°
2026-05-06 03:52 26.39762 -82.01386 39095 ft 406 kts 159°
2026-05-06 03:53 26.34472 -81.98975 39092 ft 418 kts 159°
2026-05-06 03:53 26.29009 -81.96489 39091 ft 430 kts 159°
2026-05-06 03:54 26.23411 -81.93944 39095 ft 441 kts 159°
2026-05-06 03:54 26.17708 -81.91354 39093 ft 442 kts 159°
2026-05-06 03:55 26.11999 -81.88763 39045 ft 442 kts 159°
2026-05-06 03:55 26.09177 -81.87483 38435 ft 427 kts 159°
2026-05-06 03:55 26.06480 -81.86260 38003 ft 414 kts 159°
2026-05-06 03:56 26.03840 -81.85066 37403 ft 406 kts 159°
2026-05-06 03:56 26.01253 -81.83894 36804 ft 399 kts 159°
2026-05-06 03:56 25.98737 -81.82756 36211 ft 392 kts 159°
2026-05-06 03:56 25.96219 -81.81617 35607 ft 385 kts 159°
2026-05-06 03:57 25.93749 -81.80500 34913 ft 379 kts 159°
2026-05-06 03:57 25.91332 -81.79408 34236 ft 374 kts 159°
2026-05-06 03:57 25.88977 -81.78305 33562 ft 370 kts 154°
2026-05-06 03:57 25.86800 -81.76821 32904 ft 365 kts 149°
2026-05-06 03:58 25.84643 -81.75333 32224 ft 360 kts 150°
2026-05-06 03:58 25.82520 -81.73872 31551 ft 356 kts 150°
2026-05-06 03:58 25.80433 -81.72436 30884 ft 352 kts 150°
2026-05-06 03:58 25.78387 -81.71028 30226 ft 348 kts 150°
2026-05-06 03:59 25.76332 -81.69617 29549 ft 345 kts 150°
2026-05-06 03:59 25.74292 -81.68216 28874 ft 342 kts 149°
2026-05-06 03:59 25.72305 -81.66852 28249 ft 339 kts 149°
2026-05-06 03:59 25.70299 -81.65474 27616 ft 336 kts 149°
2026-05-06 04:00 25.68303 -81.64103 26994 ft 333 kts 149°
2026-05-06 04:00 25.66338 -81.62753 26378 ft 330 kts 149°
2026-05-06 04:00 25.64375 -81.61407 25760 ft 328 kts 149°
2026-05-06 04:00 25.62429 -81.60072 25144 ft 325 kts 149°
2026-05-06 04:01 25.60512 -81.58759 24537 ft 323 kts 149°
2026-05-06 04:01 25.58597 -81.57446 23923 ft 321 kts 149°
2026-05-06 04:01 25.56711 -81.56155 23311 ft 319 kts 149°
2026-05-06 04:01 25.54835 -81.54871 22702 ft 317 kts 149°
2026-05-06 04:02 25.52933 -81.53569 22088 ft 315 kts 149°
2026-05-06 04:02 25.51037 -81.52303 21473 ft 312 kts 155°
2026-05-06 04:02 25.48941 -81.51818 20869 ft 309 kts 185°
2026-05-06 04:02 25.46853 -81.52518 20321 ft 318 kts 205°
2026-05-06 04:03 25.44777 -81.53509 19768 ft 328 kts 203°
2026-05-06 04:03 25.42637 -81.54504 19209 ft 336 kts 203°
2026-05-06 04:03 25.40438 -81.55524 18644 ft 342 kts 203°
2026-05-06 04:03 25.38240 -81.56542 18085 ft 347 kts 203°
2026-05-06 04:04 25.36009 -81.57574 17526 ft 350 kts 204°
2026-05-06 04:04 25.33705 -81.58641 16950 ft 352 kts 204°
2026-05-06 04:04 25.31407 -81.59703 16378 ft 353 kts 204°
2026-05-06 04:04 25.29090 -81.60774 15797 ft 353 kts 204°
2026-05-06 04:05 25.26829 -81.61819 15216 ft 347 kts 204°
2026-05-06 04:05 25.24645 -81.62826 14625 ft 334 kts 204°
2026-05-06 04:05 25.22538 -81.63799 14033 ft 323 kts 204°
2026-05-06 04:05 25.20498 -81.64741 13387 ft 316 kts 204°
2026-05-06 04:06 25.18495 -81.65665 12661 ft 313 kts 204°
2026-05-06 04:06 25.16516 -81.66579 11881 ft 310 kts 202°
2026-05-06 04:06 25.14499 -81.67520 11047 ft 309 kts 203°
2026-05-06 04:06 25.12502 -81.68424 10264 ft 306 kts 205°
2026-05-06 04:07 25.10556 -81.69330 9597 ft 302 kts 203°
2026-05-06 04:07 25.08659 -81.70200 9296 ft 285 kts 204°
2026-05-06 04:07 25.06880 -81.71021 9012 ft 272 kts 203°
2026-05-06 04:07 25.05146 -81.71821 8714 ft 261 kts 204°
2026-05-06 04:08 25.03498 -81.72575 8420 ft 251 kts 203°
2026-05-06 04:08 25.01907 -81.73315 8162 ft 246 kts 203°
2026-05-06 04:08 25.00315 -81.74043 8041 ft 239 kts 201°
2026-05-06 04:08 24.98784 -81.74749 8000 ft 229 kts 201°
2026-05-06 04:09 24.97327 -81.75414 7983 ft 218 kts 202°
2026-05-06 04:09 24.95951 -81.76049 7986 ft 208 kts 202°
2026-05-06 04:09 24.94627 -81.76657 7986 ft 198 kts 202°
2026-05-06 04:09 24.93372 -81.77234 7987 ft 190 kts 202°
2026-05-06 04:10 24.92170 -81.77786 7987 ft 182 kts 202°
2026-05-06 04:10 24.91026 -81.78310 7988 ft 179 kts 202°
2026-05-06 04:10 24.89741 -81.78900 8048 ft 219 kts 202°
2026-05-06 04:10 24.88191 -81.79593 8045 ft 250 kts 197°
2026-05-06 04:11 24.86461 -81.79918 8018 ft 253 kts 187°
2026-05-06 04:11 24.84672 -81.80205 8005 ft 256 kts 185°
2026-05-06 04:11 24.82866 -81.79998 8005 ft 256 kts 159°
2026-05-06 04:11 24.81243 -81.79138 8007 ft 257 kts 150°
2026-05-06 04:12 24.79586 -81.78062 8025 ft 291 kts 147°
2026-05-06 04:12 24.77836 -81.76860 8005 ft 291 kts 147°
2026-05-06 04:12 24.76134 -81.75675 7998 ft 288 kts 146°
2026-05-06 04:12 24.74439 -81.74493 7997 ft 285 kts 146°
2026-05-06 04:13 24.72750 -81.73315 7951 ft 285 kts 146°
2026-05-06 04:13 24.71031 -81.72115 7626 ft 295 kts 146°
2026-05-06 04:13 24.69246 -81.70871 7305 ft 303 kts 147°
2026-05-06 04:13 24.67428 -81.69604 6972 ft 310 kts 147°
2026-05-06 04:14 24.65614 -81.68340 6635 ft 314 kts 146°
2026-05-06 04:14 24.63773 -81.67059 6282 ft 301 kts 146°
2026-05-06 04:14 24.62033 -81.65847 5943 ft 285 kts 146°
2026-05-06 04:14 24.60368 -81.64689 5622 ft 275 kts 146°
2026-05-06 04:15 24.58771 -81.63577 5321 ft 270 kts 146°
2026-05-06 04:15 24.57154 -81.62452 5018 ft 267 kts 146°
2026-05-06 04:15 24.55580 -81.61357 4723 ft 263 kts 146°
2026-05-06 04:15 24.54046 -81.60292 4434 ft 260 kts 146°
2026-05-06 04:16 24.52514 -81.59220 4077 ft 260 kts 143°
2026-05-06 04:16 24.51392 -81.57688 3534 ft 261 kts 108°
2026-05-06 04:16 24.51325 -81.55695 3027 ft 259 kts 72°
2026-05-06 04:16 24.52328 -81.54075 2557 ft 258 kts 36°
2026-05-06 04:17 24.54007 -81.53449 2211 ft 255 kts
2026-05-06 04:17 24.55596 -81.54029 2005 ft 230 kts 320°
2026-05-06 04:17 24.56334 -81.55472 2008 ft 213 kts 278°
2026-05-06 04:17 24.56081 -81.57023 2003 ft 198 kts 256°
2026-05-06 04:18 24.55880 -81.58444 2020 ft 177 kts 266°
2026-05-06 04:18 24.55802 -81.59737 1968 ft 162 kts 269°
2026-05-06 04:18 24.55767 -81.60947 1881 ft 152 kts 271°
2026-05-06 04:18 24.55747 -81.62109 1773 ft 149 kts 271°
2026-05-06 04:19 24.55733 -81.63248 1668 ft 147 kts 271°
2026-05-06 04:19 24.55721 -81.64394 1573 ft 149 kts 271°
2026-05-06 04:19 24.55711 -81.65527 1511 ft 149 kts 271°
2026-05-06 04:19 24.55699 -81.66668 1464 ft 149 kts 271°
2026-05-06 04:20 24.55687 -81.67851 1285 ft 158 kts 271°
2026-05-06 04:20 24.55675 -81.69089 1083 ft 158 kts 271°
2026-05-06 04:20 24.55663 -81.70258 872 ft 146 kts 272°
2026-05-06 04:20 24.55655 -81.71343 687 ft 136 kts 272°
2026-05-06 04:21 24.55646 -81.72361 520 ft 132 kts 271°
2026-05-06 04:21 24.55635 -81.73370 363 ft 134 kts 271°
2026-05-06 04:21 24.55629 -81.74404 193 ft 134 kts 271°
2026-05-06 04:21 24.55618 -81.75409 10 ft 124 kts 271°
2026-05-06 04:22 24.55610 -81.76266 7 ft 97 kts 271°
2026-05-06 04:22 24.55583 -81.76664 7 ft 10 kts 194°
2026-05-06 04:22 24.55523 -81.76627 7 ft 10 kts 115°
2026-05-06 04:23 24.55522 -81.76450 7 ft 18 kts 89°
2026-05-06 04:23 24.55523 -81.76221 7 ft 36 kts 89°
2026-05-06 04:23 24.55526 -81.75897 6 ft 41 kts 91°
2026-05-06 04:23 24.55478 -81.75784 6 ft 11 kts 168°
2026-05-06 04:24 24.55462 -81.75709 6 ft 11 kts 89°
2026-05-06 04:24 24.55448 -81.75672 6 ft 0 kts 183°